Location: *
(46.3500°N, 10.9000°E)
Time: 06:28:53
(UTC+00:00)

Cosmos 2344 - Pass Details

Date: 09 April 2020
Orbit: 1251 x 2991 km, 63.3° (Epoch: 29 May)

Event Time Altitude Azimuth Distance (km) Brightness Sun altitude
Rises 22:24:40 0° 319° (NW) 4,692 7.4 -34.4°
Reaches altitude 10° 22:27:21 10° 317° (NW) 3,859 6.7 -34.5°
Maximum altitude 22:37:05 68° 238° (WSW) 2,135 4.5 -34.9°
Enters shadow 22:38:43 63° 200° (SSW) 2,277 4.5 -34.9°
